Time,TemperatureF,DewpointF,PressureIn,WindDirection,WindDirectionDegrees,WindSpeedMPH,WindSpeedGustMPH,Humidity,HourlyPrecipIn,Conditions,Clouds,dailyrainin,SoftwareType,DateUTC
2013-10-21 00:01:00,46.5,40.1,29.90,ESE,113,0.0,0.0,78,0.00,,,0.00,WUHU216HW,2013-10-21 04:01:00,
2013-10-21 00:06:00,46.5,40.1,29.90,ESE,113,0.0,0.0,78,0.00,,,0.00,WUHU216HW,2013-10-21 04:06:00,
2013-10-21 00:11:00,46.2,39.7,29.90,ESE,113,0.0,0.0,78,0.00,,,0.00,WUHU216HW,2013-10-21 04:11:00,
2013-10-21 00:16:00,46.2,39.7,29.90,ESE,113,0.0,0.0,78,0.00,,,0.00,WUHU216HW,2013-10-21 04:16:00,
2013-10-21 00:21:00,46.0,39.5,29.90,ESE,113,0.0,0.0,78,0.00,,,0.00,WUHU216HW,2013-10-21 04:21:00,
2013-10-21 00:26:00,45.8,39.7,29.90,ESE,113,0.0,0.0,79,0.00,,,0.00,WUHU216HW,2013-10-21 04:26:00,
2013-10-21 00:31:00,45.6,39.5,29.90,ESE,113,0.0,0.0,79,0.00,,,0.00,WUHU216HW,2013-10-21 04:31:00,
2013-10-21 00:36:00,45.6,39.5,29.90,ESE,113,0.0,0.0,79,0.00,,,0.00,WUHU216HW,2013-10-21 04:36:00,
2013-10-21 00:41:00,45.5,39.3,29.90,ESE,113,0.0,0.0,79,0.00,,,0.00,WUHU216HW,2013-10-21 04:41:00,
2013-10-21 00:46:00,45.3,39.2,29.90,ESE,113,0.0,0.0,79,0.00,,,0.00,WUHU216HW,2013-10-21 04:46:00,
2013-10-21 00:51:00,45.1,39.0,29.90,ESE,113,0.0,0.0,79,0.00,,,0.00,WUHU216HW,2013-10-21 04:51:00,
2013-10-21 00:56:00,45.1,39.0,29.90,ESE,113,0.0,0.0,79,0.00,,,0.00,WUHU216HW,2013-10-21 04:56:00,
2013-10-21 01:01:00,44.9,39.2,29.90,ESE,113,0.0,0.0,80,0.00,,,0.00,WUHU216HW,2013-10-21 05:01:00,
2013-10-21 01:06:00,44.9,39.2,29.90,ESE,113,0.0,0.0,80,0.00,,,0.00,WUHU216HW,2013-10-21 05:06:00,
2013-10-21 01:11:00,44.9,39.2,29.90,ESE,113,0.0,0.0,80,0.00,,,0.00,WUHU216HW,2013-10-21 05:11:00,
2013-10-21 01:16:00,44.7,39.0,29.90,ESE,113,0.0,0.0,80,0.00,,,0.00,WUHU216HW,2013-10-21 05:16:00,
2013-10-21 01:21:00,44.7,39.0,29.89,ESE,113,0.0,0.0,80,0.00,,,0.00,WUHU216HW,2013-10-21 05:21:00,
2013-10-21 01:26:00,44.6,38.8,29.89,ESE,113,0.0,0.0,80,0.00,,,0.00,WUHU216HW,2013-10-21 05:26:00,
2013-10-21 01:31:00,44.4,38.6,29.89,ESE,113,0.0,0.0,80,0.00,,,0.00,WUHU216HW,2013-10-21 05:31:00,
2013-10-21 01:36:00,44.4,38.6,29.89,ESE,113,0.0,0.0,80,0.00,,,0.00,WUHU216HW,2013-10-21 05:36:00,
2013-10-21 01:41:00,44.2,38.4,29.89,ESE,113,0.0,0.0,80,0.00,,,0.00,WUHU216HW,2013-10-21 05:41:00,
2013-10-21 01:46:00,44.2,38.4,29.89,ESE,113,0.0,0.0,80,0.00,,,0.00,WUHU216HW,2013-10-21 05:46:00,
2013-10-21 01:51:00,44.0,38.3,29.90,ESE,113,0.0,0.0,80,0.00,,,0.00,WUHU216HW,2013-10-21 05:51:00,
2013-10-21 01:56:00,43.8,38.1,29.90,ESE,113,0.0,0.0,80,0.00,,,0.00,WUHU216HW,2013-10-21 05:56:00,
2013-10-21 02:01:00,43.8,38.4,29.90,ESE,113,0.0,0.0,81,0.00,,,0.00,WUHU216HW,2013-10-21 06:01:00,
2013-10-21 02:06:00,43.7,38.2,29.90,ESE,113,0.0,0.0,81,0.00,,,0.00,WUHU216HW,2013-10-21 06:06:00,
2013-10-21 02:11:00,43.5,38.0,29.90,ESE,113,0.0,0.0,81,0.00,,,0.00,WUHU216HW,2013-10-21 06:11:00,
2013-10-21 02:16:00,43.5,38.0,29.90,ESE,113,0.0,0.0,81,0.00,,,0.00,WUHU216HW,2013-10-21 06:16:00,
2013-10-21 02:21:00,43.5,38.0,29.90,ESE,113,0.0,0.0,81,0.00,,,0.00,WUHU216HW,2013-10-21 06:21:00,
2013-10-21 02:26:00,43.3,37.8,29.90,ESE,113,0.0,0.0,81,0.00,,,0.00,WUHU216HW,2013-10-21 06:26:00,
2013-10-21 02:31:00,43.3,37.8,29.90,ESE,113,0.0,0.0,81,0.00,,,0.00,WUHU216HW,2013-10-21 06:31:00,
2013-10-21 02:36:00,43.1,37.7,29.90,ESE,113,0.0,0.0,81,0.00,,,0.00,WUHU216HW,2013-10-21 06:36:00,
2013-10-21 02:41:00,42.9,37.5,29.90,ESE,113,0.0,0.0,81,0.00,,,0.00,WUHU216HW,2013-10-21 06:41:00,
2013-10-21 02:46:00,42.9,37.5,29.90,ESE,113,0.0,0.0,81,0.00,,,0.00,WUHU216HW,2013-10-21 06:46:00,
2013-10-21 02:51:00,42.6,37.1,29.90,ESE,113,0.0,0.0,81,0.00,,,0.00,WUHU216HW,2013-10-21 06:51:00,
2013-10-21 02:56:00,42.6,37.1,29.90,ESE,113,0.0,0.0,81,0.00,,,0.00,WUHU216HW,2013-10-21 06:56:00,
2013-10-21 03:01:00,42.6,37.1,29.90,ESE,113,0.0,0.0,81,0.00,,,0.00,WUHU216HW,2013-10-21 07:01:00,
2013-10-21 03:06:00,42.6,37.1,29.90,ESE,113,0.0,0.0,81,0.00,,,0.00,WUHU216HW,2013-10-21 07:06:00,
2013-10-21 03:12:00,42.6,37.4,29.90,ESE,113,0.0,0.0,82,0.00,,,0.00,WUHU216HW,2013-10-21 07:12:00,
2013-10-21 03:17:00,42.6,37.4,29.90,ESE,113,0.0,0.0,82,0.00,,,0.00,WUHU216HW,2013-10-21 07:17:00,
2013-10-21 03:22:00,42.4,37.2,29.90,ESE,113,0.0,0.0,82,0.00,,,0.00,WUHU216HW,2013-10-21 07:22:00,
2013-10-21 03:27:00,42.4,37.2,29.90,ESE,113,0.0,0.0,82,0.00,,,0.00,WUHU216HW,2013-10-21 07:27:00,
2013-10-21 03:32:00,42.4,37.2,29.90,ESE,113,0.0,0.0,82,0.00,,,0.00,WUHU216HW,2013-10-21 07:32:00,
2013-10-21 03:37:00,42.4,37.2,29.90,ESE,113,0.0,0.0,82,0.00,,,0.00,WUHU216HW,2013-10-21 07:37:00,
2013-10-21 03:42:00,42.2,37.1,29.90,ESE,113,0.0,0.0,82,0.00,,,0.00,WUHU216HW,2013-10-21 07:42:00,
2013-10-21 03:47:00,42.0,36.9,29.90,ESE,113,0.0,0.0,82,0.00,,,0.00,WUHU216HW,2013-10-21 07:47:00,
2013-10-21 03:52:00,41.9,36.7,29.90,ESE,113,0.0,0.0,82,0.00,,,0.00,WUHU216HW,2013-10-21 07:52:00,
2013-10-21 03:57:00,41.9,36.7,29.90,ESE,113,0.0,0.0,82,0.00,,,0.00,WUHU216HW,2013-10-21 07:57:00,
2013-10-21 04:02:00,41.9,36.7,29.89,ESE,113,0.0,0.0,82,0.00,,,0.00,WUHU216HW,2013-10-21 08:02:00,
2013-10-21 04:07:00,41.7,36.5,29.90,ESE,113,0.0,0.0,82,0.00,,,0.00,WUHU216HW,2013-10-21 08:07:00,
2013-10-21 04:12:00,41.7,36.5,29.90,ESE,113,0.0,0.0,82,0.00,,,0.00,WUHU216HW,2013-10-21 08:12:00,
2013-10-21 04:17:00,41.7,36.8,29.89,ESE,113,0.0,0.0,83,0.00,,,0.00,WUHU216HW,2013-10-21 08:17:00,
2013-10-21 04:22:00,41.5,36.6,29.89,ESE,113,0.0,0.0,83,0.00,,,0.00,WUHU216HW,2013-10-21 08:22:00,
2013-10-21 04:27:00,41.5,36.6,29.89,ESE,113,0.0,0.0,83,0.00,,,0.00,WUHU216HW,2013-10-21 08:27:00,
2013-10-21 04:32:00,41.5,36.6,29.89,ESE,113,0.0,0.0,83,0.00,,,0.00,WUHU216HW,2013-10-21 08:32:00,
2013-10-21 04:37:00,41.3,36.5,29.89,ESE,113,0.0,0.0,83,0.00,,,0.00,WUHU216HW,2013-10-21 08:37:00,
2013-10-21 04:42:00,41.3,36.5,29.89,ESE,113,0.0,0.0,83,0.00,,,0.00,WUHU216HW,2013-10-21 08:42:00,
2013-10-21 04:47:00,41.3,36.3,29.90,ESE,113,0.0,0.0,83,0.00,,,0.00,WUHU216HW,2013-10-21 08:47:00,
2013-10-21 04:52:00,41.1,36.3,29.90,ESE,113,0.0,0.0,83,0.00,,,0.00,WUHU216HW,2013-10-21 08:52:00,
2013-10-21 04:57:00,41.0,36.1,29.90,ESE,113,0.0,0.0,83,0.00,,,0.00,WUHU216HW,2013-10-21 08:57:00,
2013-10-21 05:02:00,40.8,35.9,29.90,ESE,113,0.0,0.0,83,0.00,,,0.00,WUHU216HW,2013-10-21 09:02:00,
2013-10-21 05:07:00,40.8,35.9,29.90,ESE,113,0.0,0.0,83,0.00,,,0.00,WUHU216HW,2013-10-21 09:07:00,
2013-10-21 05:12:00,40.8,35.9,29.90,ESE,113,0.0,0.0,83,0.00,,,0.00,WUHU216HW,2013-10-21 09:12:00,
2013-10-21 05:17:00,40.6,35.8,29.89,ESE,113,0.0,0.0,83,0.00,,,0.00,WUHU216HW,2013-10-21 09:17:00,
2013-10-21 05:22:00,40.6,35.8,29.90,ESE,113,0.0,0.0,83,0.00,,,0.00,WUHU216HW,2013-10-21 09:22:00,
2013-10-21 05:27:00,40.6,35.8,29.90,ESE,113,0.0,0.0,83,0.00,,,0.00,WUHU216HW,2013-10-21 09:27:00,
2013-10-21 05:32:00,40.4,35.6,29.89,ESE,113,0.0,0.0,83,0.00,,,0.00,WUHU216HW,2013-10-21 09:32:00,
2013-10-21 05:37:00,40.4,35.6,29.89,ESE,113,0.0,0.0,83,0.00,,,0.00,WUHU216HW,2013-10-21 09:37:00,
2013-10-21 05:42:00,40.4,35.6,29.90,ESE,113,0.0,0.0,83,0.00,,,0.00,WUHU216HW,2013-10-21 09:42:00,
2013-10-21 05:47:00,40.2,35.4,29.90,ESE,113,0.0,0.0,83,0.00,,,0.00,WUHU216HW,2013-10-21 09:47:00,
2013-10-21 05:52:00,40.2,35.4,29.90,ESE,113,0.0,0.0,83,0.00,,,0.00,WUHU216HW,2013-10-21 09:52:00,
2013-10-21 05:57:00,40.2,35.4,29.90,ESE,113,0.0,0.0,83,0.00,,,0.00,WUHU216HW,2013-10-21 09:57:00,
2013-10-21 06:02:00,40.2,35.4,29.90,ESE,113,0.0,0.0,83,0.00,,,0.00,WUHU216HW,2013-10-21 10:02:00,
2013-10-21 06:07:00,40.2,35.4,29.90,ESE,113,0.0,0.0,83,0.00,,,0.00,WUHU216HW,2013-10-21 10:07:00,
2013-10-21 06:12:00,40.2,35.4,29.90,ESE,113,0.0,0.0,83,0.00,,,0.00,WUHU216HW,2013-10-21 10:12:00,
2013-10-21 06:17:00,40.1,35.3,29.90,ESE,113,0.0,0.0,83,0.00,,,0.00,WUHU216HW,2013-10-21 10:17:00,
2013-10-21 06:22:00,40.1,35.3,29.90,ESE,113,0.0,0.0,83,0.00,,,0.00,WUHU216HW,2013-10-21 10:22:00,
2013-10-21 06:27:00,39.9,35.1,29.90,ESE,113,0.0,0.0,83,0.00,,,0.00,WUHU216HW,2013-10-21 10:27:00,
2013-10-21 06:32:00,39.9,35.4,29.90,ESE,113,0.0,0.0,84,0.00,,,0.00,WUHU216HW,2013-10-21 10:32:00,
2013-10-21 06:37:00,39.9,35.4,29.90,ESE,113,0.0,0.0,84,0.00,,,0.00,WUHU216HW,2013-10-21 10:37:00,
2013-10-21 06:42:00,39.9,35.4,29.90,ESE,113,0.0,0.0,84,0.00,,,0.00,WUHU216HW,2013-10-21 10:42:00,
2013-10-21 06:47:00,39.7,35.2,29.90,ESE,113,0.0,0.0,84,0.00,,,0.00,WUHU216HW,2013-10-21 10:47:00,
2013-10-21 06:52:00,39.7,35.2,29.90,ESE,113,0.0,0.0,84,0.00,,,0.00,WUHU216HW,2013-10-21 10:52:00,
2013-10-21 06:57:00,39.7,35.2,29.90,ESE,113,0.0,0.0,84,0.00,,,0.00,WUHU216HW,2013-10-21 10:57:00,
2013-10-21 07:02:00,39.5,35.0,29.90,ESE,113,0.0,0.0,84,0.00,,,0.00,WUHU216HW,2013-10-21 11:02:00,
2013-10-21 07:07:00,39.5,35.0,29.90,ESE,113,0.0,0.0,84,0.00,,,0.00,WUHU216HW,2013-10-21 11:07:00,
2013-10-21 07:12:00,39.5,35.0,29.89,ESE,113,0.0,0.0,84,0.00,,,0.00,WUHU216HW,2013-10-21 11:12:00,
2013-10-21 07:17:00,39.5,35.0,29.89,ESE,113,0.0,0.0,84,0.00,,,0.00,WUHU216HW,2013-10-21 11:17:00,
2013-10-21 07:22:00,39.5,35.0,29.89,ESE,113,0.0,0.0,84,0.00,,,0.00,WUHU216HW,2013-10-21 11:22:00,
2013-10-21 07:27:00,39.5,35.0,29.89,ESE,113,0.0,0.0,84,0.00,,,0.00,WUHU216HW,2013-10-21 11:27:00,
2013-10-21 07:32:00,39.3,34.9,29.89,ESE,113,0.0,0.0,84,0.00,,,0.00,WUHU216HW,2013-10-21 11:32:00,
2013-10-21 07:37:00,39.3,34.9,29.89,ESE,113,0.0,0.0,84,0.00,,,0.00,WUHU216HW,2013-10-21 11:37:00,
2013-10-21 07:42:00,39.3,34.9,29.89,ESE,113,0.0,0.0,84,0.00,,,0.00,WUHU216HW,2013-10-21 11:42:00,
2013-10-21 07:47:00,39.3,34.9,29.89,ESE,113,0.0,0.0,84,0.00,,,0.00,WUHU216HW,2013-10-21 11:47:00,
2013-10-21 07:52:00,39.2,34.7,29.89,ESE,113,0.0,0.0,84,0.00,,,0.00,WUHU216HW,2013-10-21 11:52:00,
2013-10-21 07:57:00,39.0,34.5,29.89,ESE,113,0.0,0.0,84,0.00,,,0.00,WUHU216HW,2013-10-21 11:57:00,
2013-10-21 08:02:00,39.0,34.5,29.90,ESE,113,0.0,0.0,84,0.00,,,0.00,WUHU216HW,2013-10-21 12:02:00,
2013-10-21 08:07:00,39.0,34.5,29.89,ESE,113,0.0,0.0,84,0.00,,,0.00,WUHU216HW,2013-10-21 12:07:00,
2013-10-21 08:12:00,39.0,34.5,29.90,ESE,113,0.0,0.0,84,0.00,,,0.00,WUHU216HW,2013-10-21 12:12:00,
2013-10-21 08:17:00,39.0,34.5,29.89,ESE,113,0.0,0.0,84,0.00,,,0.00,WUHU216HW,2013-10-21 12:17:00,
2013-10-21 08:22:00,39.0,34.5,29.89,ESE,113,0.0,0.0,84,0.00,,,0.00,WUHU216HW,2013-10-21 12:22:00,
2013-10-21 08:27:00,39.0,34.5,29.89,ESE,113,0.0,0.0,84,0.00,,,0.00,WUHU216HW,2013-10-21 12:27:00,
2013-10-21 08:32:00,39.0,34.5,29.89,ESE,113,0.0,0.0,84,0.00,,,0.00,WUHU216HW,2013-10-21 12:32:00,
2013-10-21 08:37:00,39.0,34.5,29.90,ESE,113,0.0,0.0,84,0.00,,,0.00,WUHU216HW,2013-10-21 12:37:00,
2013-10-21 08:42:00,39.0,34.5,29.90,ESE,113,0.0,0.0,84,0.00,,,0.00,WUHU216HW,2013-10-21 12:42:00,
2013-10-21 08:47:00,39.0,34.8,29.90,ESE,113,0.0,0.0,85,0.00,,,0.00,WUHU216HW,2013-10-21 12:47:00,
2013-10-21 08:52:00,39.0,34.8,29.90,ESE,113,0.0,0.0,85,0.00,,,0.00,WUHU216HW,2013-10-21 12:52:00,
2013-10-21 08:57:00,39.0,34.8,29.90,ESE,113,0.0,0.0,85,0.00,,,0.00,WUHU216HW,2013-10-21 12:57:00,
2013-10-21 09:02:00,39.3,35.2,29.90,ESE,113,0.0,0.0,85,0.00,,,0.00,WUHU216HW,2013-10-21 13:02:00,
2013-10-21 09:07:00,39.3,35.2,29.90,ESE,113,0.0,0.0,85,0.00,,,0.00,WUHU216HW,2013-10-21 13:07:00,
2013-10-21 09:12:00,39.5,35.4,29.90,ESE,113,0.0,0.0,85,0.00,,,0.00,WUHU216HW,2013-10-21 13:12:00,
2013-10-21 09:17:00,39.9,35.7,29.91,ESE,113,0.0,0.0,85,0.00,,,0.00,WUHU216HW,2013-10-21 13:17:00,
2013-10-21 09:22:00,40.1,35.9,29.90,ESE,113,0.0,0.0,85,0.00,,,0.00,WUHU216HW,2013-10-21 13:22:00,
2013-10-21 09:27:00,40.2,36.0,29.90,ESE,113,0.0,0.0,85,0.00,,,0.00,WUHU216HW,2013-10-21 13:27:00,
2013-10-21 09:32:00,40.8,36.8,29.91,ESE,113,0.0,0.0,86,0.00,,,0.00,WUHU216HW,2013-10-21 13:32:00,
2013-10-21 09:37:00,41.1,37.2,29.91,ESE,113,0.0,0.0,86,0.00,,,0.00,WUHU216HW,2013-10-21 13:37:00,
2013-10-21 09:42:00,41.3,37.4,29.91,ESE,113,0.0,0.0,86,0.00,,,0.00,WUHU216HW,2013-10-21 13:42:00,
2013-10-21 09:47:00,41.9,37.9,29.91,ESE,113,0.0,0.0,86,0.00,,,0.00,WUHU216HW,2013-10-21 13:47:00,
2013-10-21 09:52:00,42.4,38.5,29.90,North,0,0.0,0.0,86,0.00,,,0.00,WUHU216HW,2013-10-21 13:52:00,
2013-10-21 09:57:00,42.6,38.8,29.90,North,0,0.0,0.0,87,0.00,,,0.00,WUHU216HW,2013-10-21 13:57:00,
2013-10-21 10:02:00,43.7,40.0,29.90,NE,45,0.0,1.1,87,0.00,,,0.00,WUHU216HW,2013-10-21 14:02:00,
2013-10-21 10:07:00,44.2,40.6,29.90,West,270,0.0,1.1,87,0.00,,,0.00,WUHU216HW,2013-10-21 14:07:00,
2013-10-21 10:12:00,44.7,41.4,29.90,WNW,293,0.0,0.0,88,0.00,,,0.00,WUHU216HW,2013-10-21 14:12:00,
2013-10-21 10:17:00,45.6,42.3,29.90,North,0,0.0,2.4,88,0.00,,,0.00,WUHU216HW,2013-10-21 14:17:00,
2013-10-21 10:22:00,46.2,42.9,29.90,North,0,0.0,2.4,88,0.00,,,0.00,WUHU216HW,2013-10-21 14:22:00,
2013-10-21 10:27:00,46.9,43.3,29.90,WSW,248,0.0,0.0,87,0.00,,,0.00,WUHU216HW,2013-10-21 14:27:00,
2013-10-21 10:32:00,48.0,44.3,29.90,NE,45,0.0,0.0,87,0.00,,,0.00,WUHU216HW,2013-10-21 14:32:00,
2013-10-21 10:37:00,48.3,44.3,29.90,SE,135,3.8,3.8,86,0.00,,,0.00,WUHU216HW,2013-10-21 14:37:00,
2013-10-21 10:42:00,49.1,44.7,29.90,East,90,0.0,3.8,85,0.00,,,0.00,WUHU216HW,2013-10-21 14:42:00,
2013-10-21 10:47:00,49.8,45.4,29.90,SE,135,0.8,3.8,85,0.00,,,0.00,WUHU216HW,2013-10-21 14:47:00,
2013-10-21 10:52:00,50.5,45.8,29.89,SE,135,1.1,3.1,84,0.00,,,0.00,WUHU216HW,2013-10-21 14:52:00,
2013-10-21 10:57:00,50.9,46.1,29.89,NW,315,0.0,2.6,84,0.00,,,0.00,WUHU216HW,2013-10-21 14:57:00,
2013-10-21 11:02:00,51.6,46.5,29.89,SE,135,0.0,1.1,83,0.00,,,0.00,WUHU216HW,2013-10-21 15:02:00,
2013-10-21 11:07:00,52.3,47.3,29.88,South,180,0.0,0.0,83,0.00,,,0.00,WUHU216HW,2013-10-21 15:07:00,
2013-10-21 11:12:00,52.7,47.3,29.88,NNW,338,0.0,0.0,82,0.00,,,0.00,WUHU216HW,2013-10-21 15:12:00,
2013-10-21 11:17:00,53.4,47.7,29.89,WSW,248,0.0,2.0,81,0.00,,,0.00,WUHU216HW,2013-10-21 15:17:00,
2013-10-21 11:22:00,54.3,48.3,29.88,NNW,338,0.0,2.0,80,0.00,,,0.00,WUHU216HW,2013-10-21 15:22:00,
2013-10-21 11:27:00,54.8,48.4,29.88,ESE,113,3.1,6.0,79,0.00,,,0.00,WUHU216HW,2013-10-21 15:27:00,
2013-10-21 11:32:00,55.4,48.9,29.88,NNW,338,0.0,6.0,79,0.00,,,0.00,WUHU216HW,2013-10-21 15:32:00,
2013-10-21 11:37:00,56.1,48.9,29.88,SSW,203,0.0,0.0,77,0.00,,,0.00,WUHU216HW,2013-10-21 15:37:00,
2013-10-21 11:42:00,56.4,48.9,29.88,West,270,0.0,0.0,76,0.00,,,0.00,WUHU216HW,2013-10-21 15:42:00,
2013-10-21 11:47:00,57.0,49.4,29.87,SSW,203,0.0,1.5,76,0.00,,,0.00,WUHU216HW,2013-10-21 15:47:00,
2013-10-21 11:52:00,57.3,49.4,29.88,SE,135,0.0,1.5,75,0.00,,,0.00,WUHU216HW,2013-10-21 15:52:00,
2013-10-21 11:57:00,57.5,49.2,29.88,NNE,23,0.0,2.4,74,0.00,,,0.00,WUHU216HW,2013-10-21 15:57:00,
2013-10-21 12:02:00,58.1,49.8,29.88,SSE,158,0.8,2.4,74,0.00,,,0.00,WUHU216HW,2013-10-21 16:02:00,
2013-10-21 12:07:00,58.6,50.0,29.88,ESE,113,0.4,0.8,73,0.00,,,0.00,WUHU216HW,2013-10-21 16:07:00,
2013-10-21 12:12:00,58.8,50.1,29.88,SE,135,0.0,0.8,73,0.00,,,0.00,WUHU216HW,2013-10-21 16:12:00,
2013-10-21 12:17:00,59.0,50.0,29.88,West,270,0.0,0.4,72,0.00,,,0.00,WUHU216HW,2013-10-21 16:17:00,
2013-10-21 12:22:00,59.5,50.1,29.88,East,90,0.0,0.0,71,0.00,,,0.00,WUHU216HW,2013-10-21 16:22:00,
2013-10-21 12:27:00,59.5,49.8,29.88,ESE,113,0.0,6.0,70,0.00,,,0.00,WUHU216HW,2013-10-21 16:27:00,
2013-10-21 12:32:00,59.7,50.0,29.88,SW,225,0.0,6.0,70,0.00,,,0.00,WUHU216HW,2013-10-21 16:32:00,
2013-10-21 12:37:00,59.9,50.1,29.88,NNE,23,0.0,2.4,70,0.00,,,0.00,WUHU216HW,2013-10-21 16:37:00,
2013-10-21 12:42:00,60.0,50.3,29.88,NNW,338,0.0,3.1,70,0.00,,,0.00,WUHU216HW,2013-10-21 16:42:00,
2013-10-21 12:47:00,60.4,50.7,29.88,ESE,113,0.0,3.1,70,0.00,,,0.00,WUHU216HW,2013-10-21 16:47:00,
2013-10-21 12:52:00,60.4,50.7,29.88,SSE,158,1.3,1.3,70,0.00,,,0.00,WUHU216HW,2013-10-21 16:52:00,
2013-10-21 12:57:00,60.6,50.4,29.88,SSW,203,0.0,1.3,69,0.00,,,0.00,WUHU216HW,2013-10-21 16:57:00,
2013-10-21 13:02:00,60.9,50.4,29.87,South,180,0.2,1.1,68,0.00,,,0.00,WUHU216HW,2013-10-21 17:02:00,
2013-10-21 13:07:00,60.9,50.0,29.87,SE,135,0.0,0.2,67,0.00,,,0.00,WUHU216HW,2013-10-21 17:07:00,
2013-10-21 13:12:00,60.9,50.0,29.87,SE,135,0.0,0.0,67,0.00,,,0.00,WUHU216HW,2013-10-21 17:12:00,
2013-10-21 13:17:00,61.1,50.1,29.87,WNW,293,0.0,0.0,67,0.00,,,0.00,WUHU216HW,2013-10-21 17:17:00,
2013-10-21 13:22:00,60.9,49.5,29.87,West,270,3.8,3.8,66,0.00,,,0.00,WUHU216HW,2013-10-21 17:22:00,
2013-10-21 13:27:00,60.9,49.5,29.87,East,90,0.0,3.8,66,0.00,,,0.00,WUHU216HW,2013-10-21 17:27:00,
2013-10-21 13:32:00,60.9,49.5,29.86,SSE,158,0.0,3.8,66,0.00,,,0.00,WUHU216HW,2013-10-21 17:32:00,
2013-10-21 13:37:00,60.9,49.1,29.86,West,270,0.0,0.0,65,0.00,,,0.00,WUHU216HW,2013-10-21 17:37:00,
2013-10-21 13:42:00,60.9,49.5,29.86,NNW,338,0.0,7.3,66,0.00,,,0.00,WUHU216HW,2013-10-21 17:42:00,
2013-10-21 13:47:00,60.9,49.1,29.86,ESE,113,4.6,7.3,65,0.00,,,0.00,WUHU216HW,2013-10-21 17:47:00,
2013-10-21 13:52:00,61.1,49.3,29.86,SE,135,0.0,4.6,65,0.00,,,0.00,WUHU216HW,2013-10-21 17:52:00,
2013-10-21 13:57:00,60.9,49.1,29.86,ENE,68,0.0,1.5,65,0.00,,,0.00,WUHU216HW,2013-10-21 17:57:00,
2013-10-21 14:02:00,60.9,49.1,29.85,North,0,0.0,0.0,65,0.00,,,0.00,WUHU216HW,2013-10-21 18:02:00,
2013-10-21 14:07:00,60.8,49.0,29.85,North,0,0.0,0.0,65,0.00,,,0.00,WUHU216HW,2013-10-21 18:07:00,
2013-10-21 14:12:00,60.8,49.0,29.85,NNE,23,0.0,0.0,65,0.00,,,0.00,WUHU216HW,2013-10-21 18:12:00,
2013-10-21 14:17:00,60.9,49.1,29.85,NW,315,0.0,0.0,65,0.00,,,0.00,WUHU216HW,2013-10-21 18:17:00,
2013-10-21 14:22:00,60.9,49.1,29.85,ENE,68,0.0,0.0,65,0.00,,,0.00,WUHU216HW,2013-10-21 18:22:00,
2013-10-21 14:27:00,60.9,49.1,29.84,North,0,0.0,1.3,65,0.00,,,0.00,WUHU216HW,2013-10-21 18:27:00,
2013-10-21 14:32:00,61.1,49.3,29.84,ESE,113,0.0,1.3,65,0.00,,,0.00,WUHU216HW,2013-10-21 18:32:00,
2013-10-21 14:37:00,61.3,49.4,29.84,ESE,113,0.0,0.0,65,0.00,,,0.00,WUHU216HW,2013-10-21 18:37:00,
2013-10-21 14:43:00,61.7,49.8,29.84,WNW,293,0.0,0.0,65,0.00,,,0.00,WUHU216HW,2013-10-21 18:43:00,
2013-10-21 14:48:00,61.8,49.1,29.84,ESE,113,4.2,4.9,63,0.00,,,0.00,WUHU216HW,2013-10-21 18:48:00,
2013-10-21 14:53:00,61.8,49.3,29.84,SE,135,0.0,4.9,63,0.00,,,0.00,WUHU216HW,2013-10-21 18:53:00,
2013-10-21 14:58:00,62.0,49.3,29.84,SE,135,0.0,4.6,63,0.00,,,0.00,WUHU216HW,2013-10-21 18:58:00,
2013-10-21 15:03:00,62.0,49.3,29.83,West,270,2.0,2.0,63,0.00,,,0.00,WUHU216HW,2013-10-21 19:03:00,
2013-10-21 15:08:00,62.0,49.3,29.83,WNW,293,0.0,2.0,63,0.00,,,0.00,WUHU216HW,2013-10-21 19:08:00,
2013-10-21 15:13:00,62.2,49.4,29.83,West,270,0.0,0.0,63,0.00,,,0.00,WUHU216HW,2013-10-21 19:13:00,
2013-10-21 15:18:00,62.2,49.4,29.83,ESE,113,0.0,0.0,63,0.00,,,0.00,WUHU216HW,2013-10-21 19:18:00,
2013-10-21 15:23:00,62.4,49.6,29.84,SE,135,0.0,0.0,63,0.00,,,0.00,WUHU216HW,2013-10-21 19:23:00,
2013-10-21 15:28:00,62.4,49.6,29.83,SSW,203,6.4,6.4,63,0.00,,,0.00,WUHU216HW,2013-10-21 19:28:00,
2013-10-21 15:33:00,62.6,49.8,29.83,SE,135,3.5,6.4,63,0.00,,,0.00,WUHU216HW,2013-10-21 19:33:00,
2013-10-21 15:38:00,62.7,49.9,29.83,SSE,158,0.0,6.4,63,0.00,,,0.00,WUHU216HW,2013-10-21 19:38:00,
2013-10-21 15:43:00,62.6,49.8,29.83,SE,135,4.4,4.4,63,0.00,,,0.00,WUHU216HW,2013-10-21 19:43:00,
2013-10-21 15:48:00,62.7,49.9,29.83,SW,225,0.0,4.4,63,0.00,,,0.00,WUHU216HW,2013-10-21 19:48:00,
2013-10-21 15:53:00,62.7,49.9,29.83,SW,225,0.0,4.4,63,0.00,,,0.00,WUHU216HW,2013-10-21 19:53:00,
2013-10-21 15:58:00,62.7,49.9,29.83,South,180,4.9,4.9,63,0.00,,,0.00,WUHU216HW,2013-10-21 19:58:00,
2013-10-21 16:03:00,62.7,49.9,29.83,SE,135,1.3,4.9,63,0.00,,,0.00,WUHU216HW,2013-10-21 20:03:00,
2013-10-21 16:08:00,62.7,49.9,29.82,NNW,338,0.0,4.9,63,0.00,,,0.00,WUHU216HW,2013-10-21 20:08:00,
2013-10-21 16:13:00,62.7,49.9,29.82,NW,315,0.0,0.0,63,0.00,,,0.00,WUHU216HW,2013-10-21 20:13:00,
2013-10-21 16:18:00,62.7,49.9,29.83,SW,225,0.0,0.0,63,0.00,,,0.00,WUHU216HW,2013-10-21 20:18:00,
2013-10-21 16:23:00,62.9,50.5,29.83,NNW,338,2.6,2.6,64,0.00,,,0.00,WUHU216HW,2013-10-21 20:23:00,
2013-10-21 16:28:00,62.9,50.5,29.82,NNW,338,0.0,2.6,64,0.00,,,0.00,WUHU216HW,2013-10-21 20:28:00,
2013-10-21 16:33:00,62.9,50.1,29.83,SSW,203,0.0,2.6,63,0.00,,,0.00,WUHU216HW,2013-10-21 20:33:00,
2013-10-21 16:38:00,62.9,49.9,29.83,SSE,158,0.0,0.8,63,0.00,,,0.00,WUHU216HW,2013-10-21 20:38:00,
2013-10-21 16:43:00,62.7,49.9,29.83,ENE,68,0.0,5.5,63,0.00,,,0.00,WUHU216HW,2013-10-21 20:43:00,
2013-10-21 16:48:00,62.7,49.9,29.83,North,0,0.0,5.5,63,0.00,,,0.00,WUHU216HW,2013-10-21 20:48:00,
2013-10-21 16:53:00,62.4,49.6,29.83,East,90,0.0,0.0,63,0.00,,,0.00,WUHU216HW,2013-10-21 20:53:00,
2013-10-21 16:58:00,62.2,49.4,29.83,NW,315,6.7,6.7,63,0.00,,,0.00,WUHU216HW,2013-10-21 20:58:00,
2013-10-21 17:03:00,61.8,49.1,29.83,West,270,0.0,6.7,63,0.00,,,0.00,WUHU216HW,2013-10-21 21:03:00,
2013-10-21 17:08:00,61.3,49.0,29.83,NW,315,0.0,6.7,64,0.00,,,0.00,WUHU216HW,2013-10-21 21:08:00,
2013-10-21 17:13:00,60.9,48.7,29.84,WSW,248,0.6,0.6,64,0.00,,,0.00,WUHU216HW,2013-10-21 21:13:00,
2013-10-21 17:18:00,60.9,48.7,29.84,SW,225,0.0,0.6,64,0.00,,,0.00,WUHU216HW,2013-10-21 21:18:00,
2013-10-21 17:23:00,60.6,48.4,29.84,WSW,248,0.0,2.6,64,0.00,,,0.00,WUHU216HW,2013-10-21 21:23:00,
2013-10-21 17:28:00,60.4,48.6,29.84,WSW,248,0.0,5.8,65,0.00,,,0.00,WUHU216HW,2013-10-21 21:28:00,
2013-10-21 17:33:00,60.2,48.4,29.85,South,180,3.3,5.8,65,0.00,,,0.00,WUHU216HW,2013-10-21 21:33:00,
2013-10-21 17:38:00,60.0,48.2,29.85,West,270,0.0,3.3,65,0.00,,,0.00,WUHU216HW,2013-10-21 21:38:00,
2013-10-21 17:43:00,59.9,48.1,29.84,West,270,0.0,0.0,65,0.00,,,0.00,WUHU216HW,2013-10-21 21:43:00,
2013-10-21 17:48:00,59.9,48.1,29.84,WSW,248,0.0,0.0,65,0.00,,,0.00,WUHU216HW,2013-10-21 21:48:00,
2013-10-21 17:53:00,59.7,48.3,29.85,WSW,248,0.0,0.0,66,0.00,,,0.00,WUHU216HW,2013-10-21 21:53:00,
2013-10-21 17:58:00,59.5,48.1,29.85,NW,315,0.0,2.9,66,0.00,,,0.00,WUHU216HW,2013-10-21 21:58:00,
2013-10-21 18:03:00,59.5,48.1,29.85,WSW,248,2.4,2.9,66,0.00,,,0.00,WUHU216HW,2013-10-21 22:03:00,
2013-10-21 18:08:00,59.1,48.3,29.86,NW,315,0.0,2.4,67,0.00,,,0.00,WUHU216HW,2013-10-21 22:08:00,
2013-10-21 18:13:00,59.0,48.0,29.86,West,270,0.0,0.0,67,0.00,,,0.00,WUHU216HW,2013-10-21 22:13:00,
2013-10-21 18:18:00,58.8,47.8,29.86,West,270,0.0,0.0,67,0.00,,,0.00,WUHU216HW,2013-10-21 22:18:00,
2013-10-21 18:23:00,58.8,48.2,29.86,NNW,338,0.0,0.0,68,0.00,,,0.00,WUHU216HW,2013-10-21 22:23:00,
2013-10-21 18:28:00,58.6,48.0,29.86,West,270,0.0,0.0,68,0.00,,,0.00,WUHU216HW,2013-10-21 22:28:00,
2013-10-21 18:33:00,58.6,48.0,29.86,SW,225,0.0,0.0,68,0.00,,,0.00,WUHU216HW,2013-10-21 22:33:00,
2013-10-21 18:38:00,58.4,47.7,29.86,West,270,0.0,4.4,68,0.00,,,0.00,WUHU216HW,2013-10-21 22:38:00,
2013-10-21 18:43:00,58.1,47.5,29.86,West,270,0.0,4.4,68,0.00,,,0.00,WUHU216HW,2013-10-21 22:43:00,
2013-10-21 18:48:00,57.9,47.3,29.86,WNW,293,0.0,0.0,68,0.00,,,0.00,WUHU216HW,2013-10-21 22:48:00,
2013-10-21 18:53:00,57.7,47.2,29.87,North,0,0.0,0.0,68,0.00,,,0.00,WUHU216HW,2013-10-21 22:53:00,
2013-10-21 18:58:00,57.5,47.0,29.86,NW,315,0.0,0.0,68,0.00,,,0.00,WUHU216HW,2013-10-21 22:58:00,
2013-10-21 19:03:00,57.3,46.8,29.86,SW,225,0.0,0.0,68,0.00,,,0.00,WUHU216HW,2013-10-21 23:03:00,
2013-10-21 19:08:00,57.0,46.9,29.86,West,270,1.3,4.9,69,0.00,,,0.00,WUHU216HW,2013-10-21 23:08:00,
2013-10-21 19:13:00,57.0,46.9,29.86,West,270,0.0,4.9,69,0.00,,,0.00,WUHU216HW,2013-10-21 23:13:00,
2013-10-21 19:18:00,56.8,47.1,29.87,WSW,248,0.0,1.3,70,0.00,,,0.00,WUHU216HW,2013-10-21 23:18:00,
2013-10-21 19:23:00,56.4,46.8,29.86,NNW,338,0.0,0.0,70,0.00,,,0.00,WUHU216HW,2013-10-21 23:23:00,
2013-10-21 19:28:00,56.4,46.8,29.87,NW,315,0.0,0.0,70,0.00,,,0.00,WUHU216HW,2013-10-21 23:28:00,
2013-10-21 19:33:00,56.3,47.0,29.87,WNW,293,0.0,0.0,71,0.00,,,0.00,WUHU216HW,2013-10-21 23:33:00,
2013-10-21 19:38:00,56.1,46.8,29.87,NW,315,5.1,5.1,71,0.00,,,0.00,WUHU216HW,2013-10-21 23:38:00,
2013-10-21 19:43:00,55.9,46.6,29.87,SSW,203,0.0,5.1,71,0.00,,,0.00,WUHU216HW,2013-10-21 23:43:00,
2013-10-21 19:48:00,55.7,46.8,29.87,West,270,0.0,5.1,72,0.00,,,0.00,WUHU216HW,2013-10-21 23:48:00,
2013-10-21 19:53:00,55.4,46.5,29.88,West,270,0.0,7.3,72,0.00,,,0.00,WUHU216HW,2013-10-21 23:53:00,
2013-10-21 19:58:00,55.2,46.3,29.87,WNW,293,0.0,7.3,72,0.00,,,0.00,WUHU216HW,2013-10-21 23:58:00,
2013-10-21 20:03:00,55.2,46.3,29.88,NW,315,0.0,0.0,72,0.00,,,0.00,WUHU216HW,2013-10-22 00:03:00,
2013-10-21 20:08:00,55.0,46.5,29.87,NW,315,0.0,0.0,73,0.00,,,0.00,WUHU216HW,2013-10-22 00:08:00,
2013-10-21 20:13:00,55.0,46.5,29.88,West,270,4.2,4.2,73,0.00,,,0.00,WUHU216HW,2013-10-22 00:13:00,
2013-10-21 20:18:00,54.6,46.1,29.88,WSW,248,4.6,6.2,73,0.00,,,0.00,WUHU216HW,2013-10-22 00:18:00,
2013-10-21 20:23:00,54.3,46.1,29.88,WSW,248,4.0,10.7,74,0.00,,,0.00,WUHU216HW,2013-10-22 00:23:00,
2013-10-21 20:28:00,53.9,45.8,29.88,SW,225,1.5,10.7,74,0.00,,,0.00,WUHU216HW,2013-10-22 00:28:00,
2013-10-21 20:33:00,53.7,45.6,29.88,West,270,5.3,5.3,74,0.00,,,0.00,WUHU216HW,2013-10-22 00:33:00,
2013-10-21 20:38:00,53.4,45.3,29.88,West,270,0.0,5.3,74,0.00,,,0.00,WUHU216HW,2013-10-22 00:38:00,
2013-10-21 20:43:00,53.4,45.3,29.88,WSW,248,0.0,0.0,74,0.00,,,0.00,WUHU216HW,2013-10-22 00:43:00,
2013-10-21 20:48:00,53.2,45.1,29.88,West,270,0.0,0.0,74,0.00,,,0.00,WUHU216HW,2013-10-22 00:48:00,
2013-10-21 20:53:00,53.2,44.7,29.88,NW,315,0.0,7.1,73,0.00,,,0.00,WUHU216HW,2013-10-22 00:53:00,
2013-10-21 20:58:00,52.8,44.4,29.88,NW,315,0.0,7.1,73,0.00,,,0.00,WUHU216HW,2013-10-22 00:58:00,
2013-10-21 21:03:00,52.7,44.2,29.88,NNW,338,4.9,4.9,73,0.00,,,0.00,WUHU216HW,2013-10-22 01:03:00,
2013-10-21 21:08:00,52.5,44.1,29.88,WSW,248,0.0,4.9,73,0.00,,,0.00,WUHU216HW,2013-10-22 01:08:00,
2013-10-21 21:13:00,52.3,43.9,29.89,NE,45,0.0,1.3,73,0.00,,,0.00,WUHU216HW,2013-10-22 01:13:00,
2013-10-21 21:18:00,52.1,43.7,29.89,WNW,293,4.6,4.6,73,0.00,,,0.00,WUHU216HW,2013-10-22 01:18:00,
2013-10-21 21:23:00,51.9,43.6,29.89,WNW,293,0.0,4.6,73,0.00,,,0.00,WUHU216HW,2013-10-22 01:23:00,
2013-10-21 21:28:00,51.9,43.6,29.89,WNW,293,0.0,1.5,73,0.00,,,0.00,WUHU216HW,2013-10-22 01:28:00,
2013-10-21 21:33:00,51.8,43.4,29.89,NW,315,0.0,0.2,73,0.00,,,0.00,WUHU216HW,2013-10-22 01:33:00,
2013-10-21 21:38:00,51.6,43.2,29.89,NW,315,0.0,0.2,73,0.00,,,0.00,WUHU216HW,2013-10-22 01:38:00,
2013-10-21 21:43:00,51.6,43.2,29.89,North,0,0.0,0.0,73,0.00,,,0.00,WUHU216HW,2013-10-22 01:43:00,
2013-10-21 21:48:00,51.6,43.2,29.90,NW,315,0.0,3.1,73,0.00,,,0.00,WUHU216HW,2013-10-22 01:48:00,
2013-10-21 21:53:00,51.6,43.2,29.90,NNW,338,0.0,3.1,73,0.00,,,0.00,WUHU216HW,2013-10-22 01:53:00,
2013-10-21 21:58:00,51.6,43.2,29.90,NNW,338,0.0,0.0,73,0.00,,,0.00,WUHU216HW,2013-10-22 01:58:00,
2013-10-21 22:03:00,51.4,43.1,29.90,WNW,293,0.0,0.0,73,0.00,,,0.00,WUHU216HW,2013-10-22 02:03:00,
2013-10-21 22:08:00,51.4,43.1,29.90,NNW,338,0.0,0.0,73,0.00,,,0.00,WUHU216HW,2013-10-22 02:08:00,
2013-10-21 22:13:00,51.2,42.5,29.90,WNW,293,0.0,3.8,72,0.00,,,0.00,WUHU216HW,2013-10-22 02:13:00,
2013-10-21 22:18:00,51.0,42.4,29.90,NW,315,8.0,8.0,72,0.00,,,0.00,WUHU216HW,2013-10-22 02:18:00,
2013-10-21 22:23:00,51.0,42.4,29.90,West,270,0.0,8.0,72,0.00,,,0.00,WUHU216HW,2013-10-22 02:23:00,
2013-10-21 22:28:00,50.9,41.8,29.90,West,270,0.0,8.0,71,0.00,,,0.00,WUHU216HW,2013-10-22 02:28:00,
2013-10-21 22:33:00,50.7,41.7,29.91,WSW,248,0.0,6.2,71,0.00,,,0.00,WUHU216HW,2013-10-22 02:33:00,
2013-10-21 22:38:00,50.7,41.3,29.91,SW,225,0.0,4.6,70,0.00,,,0.00,WUHU216HW,2013-10-22 02:38:00,
2013-10-21 22:43:00,50.5,40.7,29.91,WNW,293,5.5,5.5,69,0.00,,,0.00,WUHU216HW,2013-10-22 02:43:00,
2013-10-21 22:48:00,50.1,39.6,29.91,WSW,248,0.0,5.8,67,0.00,,,0.00,WUHU216HW,2013-10-22 02:48:00,
2013-10-21 22:53:00,49.8,39.2,29.91,West,270,0.0,5.8,67,0.00,,,0.00,WUHU216HW,2013-10-22 02:53:00,
2013-10-21 22:59:00,49.8,39.2,29.91,WNW,293,0.0,3.8,67,0.00,,,0.00,WUHU216HW,2013-10-22 02:59:00,
2013-10-21 23:04:00,49.8,38.6,29.91,NNW,338,0.0,1.1,66,0.00,,,0.00,WUHU216HW,2013-10-22 03:04:00,
2013-10-21 23:09:00,49.6,38.3,29.92,WSW,248,1.3,1.3,65,0.00,,,0.00,WUHU216HW,2013-10-22 03:09:00,
2013-10-21 23:14:00,49.2,37.5,29.91,WNW,293,0.0,1.3,64,0.00,,,0.00,WUHU216HW,2013-10-22 03:14:00,
2013-10-21 23:19:00,49.1,37.4,29.92,WNW,293,0.0,3.8,64,0.00,,,0.00,WUHU216HW,2013-10-22 03:19:00,
2013-10-21 23:24:00,49.1,37.4,29.92,North,0,0.0,3.8,64,0.00,,,0.00,WUHU216HW,2013-10-22 03:24:00,
2013-10-21 23:29:00,49.1,37.4,29.92,NW,315,0.0,0.0,64,0.00,,,0.00,WUHU216HW,2013-10-22 03:29:00,
2013-10-21 23:34:00,48.9,37.2,29.93,West,270,0.0,0.0,64,0.00,,,0.00,WUHU216HW,2013-10-22 03:34:00,
2013-10-21 23:39:00,48.7,37.0,29.93,West,270,0.0,0.0,64,0.00,,,0.00,WUHU216HW,2013-10-22 03:39:00,
2013-10-21 23:44:00,48.7,37.0,29.93,West,270,3.3,3.3,64,0.00,,,0.00,WUHU216HW,2013-10-22 03:44:00,
2013-10-21 23:49:00,48.5,36.8,29.93,West,270,0.0,3.3,64,0.00,,,0.00,WUHU216HW,2013-10-22 03:49:00,
2013-10-21 23:54:00,48.3,36.7,29.93,North,0,0.0,0.0,64,0.00,,,0.00,WUHU216HW,2013-10-22 03:54:00,
2013-10-21 23:59:00,48.3,36.7,29.93,NNW,338,0.0,0.0,64,0.00,,,0.00,WUHU216HW,2013-10-22 03:59:00,